Location: Arroyo Retuerta
(40.5469°N, 4.3534°W)
Time: 11:55:52
(UTC+00:00)

Cosmos 1943 Rocket - Pass Details

Date: 01 June 2020
Orbit: 810 x 845 km, 71.0° (Epoch: 06 July)

Event Time Altitude Azimuth Distance (km) Brightness Sun altitude
Exits shadow 21:31:42 23° 170° (S) 1,691 3.3 -16.6°
Maximum altitude 21:34:54 48° 107° (ESE) 1,071 2.4 -17.0°
Drops below altitude 10° 21:40:13 10° 35° (NE) 2,438 4.8 -17.6°
Sets 21:42:45 0° 30° (NNE) 3,381 5.7 -17.9°
